Precipitable_Water
0.17 0.10 0.10 0.09 0.10 0.12 0.13 0.14 0.13 0.13 0.13 0.12 0.12 0.12 0.11 0.11 0.12 0.15 0.15 0.17 0.18 0.14 0.13 0.13 0.14 0.14 0.15 0.16 0.18 0.20 0.21 0.21 0.21 0.20 0.21 0.21 0.22 0.23 0.24 0.24 0.24 0.25 0.25 0.27 0.27 0.27 0.28 0.29 0.30 0.30 0.30 0.30 0.30 0.30 0.29 0.28 0.28 0.26 0.25 0.22 0.19 0.18 0.16 0.14 0.13 0.11 0.10 0.09 0.09 0.09 0.09 0.09 0.09 0.09 0.09 0.09 0.09 0.11 0.11 0.14 0.17 0.18 0.19 0.19 0.18 0.18
0.15 0.10 0.11 0.13 0.14 0.14 0.15 0.16 0.15 0.13 0.14 0.12 0.12 0.11 0.11 0.12 0.10 0.13 0.14 0.17 0.19 0.14 0.13 0.15 0.14 0.15 0.16 0.17 0.18 0.20 0.20 0.19 0.20 0.21 0.21 0.21 0.22 0.23 0.24 0.24 0.24 0.25 0.26 0.27 0.26 0.27 0.28 0.29 0.30 0.30 0.30 0.30 0.29 0.29 0.29 0.28 0.28 0.26 0.24 0.21 0.19 0.17 0.16 0.14 0.12 0.11 0.10 0.10 0.10 0.09 0.09 0.09 0.09 0.08 0.08 0.09 0.10 0.10 0.10 0.12 0.14 0.14 0.16 0.18 0.19 0.18
0.11 0.10 0.12 0.15 0.16 0.17 0.17 0.16 0.15 0.13 0.12 0.13 0.12 0.12 0.11 0.11 0.13 0.14 0.15 0.17 0.17 0.15 0.13 0.15 0.13 0.14 0.16 0.18 0.19 0.19 0.19 0.20 0.22 0.22 0.21 0.22 0.22 0.23 0.24 0.24 0.24 0.25 0.25 0.25 0.26 0.26 0.27 0.28 0.29 0.30 0.30 0.30 0.30 0.29 0.29 0.28 0.28 0.26 0.23 0.21 0.19 0.17 0.15 0.14 0.12 0.11 0.10 0.10 0.10 0.10 0.09 0.09 0.09 0.09 0.09 0.09 0.09 0.09 0.09 0.11 0.12 0.12 0.14 0.16 0.17 0.17
0.09 0.12 0.14 0.16 0.17 0.16 0.16 0.16 0.14 0.14 0.14 0.12 0.12 0.11 0.10 0.12 0.12 0.10 0.14 0.16 0.17 0.16 0.14 0.15 0.14 0.14 0.16 0.18 0.18 0.20 0.21 0.21 0.22 0.23 0.22 0.23 0.22 0.23 0.23 0.24 0.24 0.24 0.24 0.24 0.25 0.26 0.27 0.28 0.29 0.29 0.29 0.30 0.30 0.30 0.29 0.28 0.27 0.26 0.23 0.21 0.18 0.16 0.15 0.13 0.11 0.11 0.11 0.11 0.11 0.10 0.10 0.09 0.09 0.09 0.10 0.09 0.09 0.08 0.08 0.09 0.10 0.10 0.12 0.14 0.16 0.17
0.11 0.14 0.18 0.18 0.17 0.16 0.14 0.15 0.14 0.13 0.11 0.13 0.13 0.13 0.12 0.12 0.13 0.13 0.13 0.16 0.17 0.17 0.18 0.16 0.14 0.13 0.15 0.15 0.16 0.19 0.21 0.21 0.21 0.22 0.22 0.23 0.23 0.24 0.24 0.24 0.24 0.24 0.24 0.24 0.25 0.26 0.27 0.28 0.29 0.29 0.30 0.30 0.30 0.30 0.29 0.29 0.27 0.25 0.22 0.20 0.18 0.16 0.14 0.13 0.12 0.11 0.11 0.11 0.10 0.10 0.10 0.10 0.10 0.09 0.09 0.09 0.08 0.08 0.08 0.09 0.09 0.09 0.10 0.12 0.14 0.16
0.13 0.16 0.19 0.17 0.16 0.15 0.15 0.14 0.14 0.14 0.12 0.13 0.14 0.14 0.14 0.14 0.14 0.15 0.16 0.15 0.13 0.12 0.16 0.15 0.10 0.09 0.13 0.15 0.15 0.17 0.19 0.19 0.20 0.20 0.20 0.21 0.22 0.23 0.23 0.23 0.24 0.24 0.24 0.24 0.24 0.26 0.27 0.28 0.29 0.29 0.30 0.30 0.30 0.30 0.30 0.29 0.27 0.25 0.22 0.20 0.18 0.16 0.14 0.13 0.12 0.11 0.11 0.11 0.10 0.09 0.09 0.08 0.08 0.08 0.08 0.08 0.08 0.09 0.08 0.08 0.08 0.08 0.09 0.10 0.12 0.14
0.14 0.18 0.18 0.16 0.16 0.15 0.15 0.14 0.16 0.16 0.13 0.12 0.13 0.16 0.16 0.16 0.15 0.15 0.15 0.14 0.10 0.09 0.13 0.17 0.10 0.08 0.13 0.14 0.15 0.17 0.17 0.17 0.19 0.19 0.19 0.20 0.21 0.21 0.22 0.22 0.22 0.23 0.23 0.24 0.25 0.26 0.27 0.28 0.29 0.30 0.30 0.30 0.30 0.30 0.30 0.29 0.27 0.24 0.21 0.19 0.18 0.16 0.14 0.13 0.12 0.11 0.11 0.10 0.10 0.09 0.09 0.09 0.09 0.08 0.09 0.10 0.10 0.09 0.10 0.10 0.08 0.07 0.08 0.09 0.11 0.12
0.17 0.16 0.16 0.17 0.16 0.14 0.14 0.13 0.16 0.17 0.14 0.12 0.16 0.17 0.17 0.16 0.15 0.15 0.15 0.14 0.13 0.16 0.17 0.17 0.15 0.11 0.09 0.13 0.16 0.17 0.16 0.17 0.17 0.18 0.19 0.19 0.20 0.21 0.21 0.22 0.22 0.22 0.23 0.24 0.25 0.27 0.28 0.29 0.29 0.29 0.30 0.31 0.31 0.31 0.30 0.28 0.26 0.24 0.21 0.19 0.17 0.16 0.14 0.13 0.12 0.11 0.11 0.10 0.10 0.09 0.09 0.09 0.09 0.09 0.09 0.09 0.10 0.10 0.10 0.10 0.08 0.07 0.06 0.08 0.10 0.11
0.16 0.14 0.15 0.15 0.15 0.14 0.13 0.15 0.17 0.18 0.15 0.15 0.18 0.18 0.17 0.17 0.16 0.16 0.15 0.14 0.15 0.14 0.11 0.13 0.16 0.11 0.10 0.13 0.16 0.16 0.15 0.16 0.16 0.17 0.18 0.19 0.20 0.20 0.21 0.22 0.22 0.22 0.23 0.24 0.25 0.27 0.28 0.29 0.30 0.30 0.31 0.31 0.31 0.31 0.29 0.28 0.26 0.23 0.21 0.19 0.17 0.15 0.14 0.13 0.12 0.12 0.11 0.10 0.10 0.09 0.09 0.09 0.09 0.09 0.10 0.10 0.10 0.10 0.09 0.09 0.08 0.07 0.07 0.07 0.09 0.11
0.17 0.16 0.16 0.16 0.14 0.13 0.16 0.17 0.19 0.19 0.16 0.18 0.20 0.20 0.19 0.19 0.19 0.18 0.15 0.15 0.14 0.12 0.09 0.12 0.14 0.10 0.09 0.13 0.14 0.16 0.15 0.15 0.16 0.17 0.17 0.18 0.19 0.20 0.21 0.22 0.22 0.23 0.23 0.24 0.26 0.27 0.29 0.30 0.30 0.31 0.32 0.31 0.31 0.31 0.29 0.28 0.26 0.23 0.21 0.19 0.17 0.15 0.14 0.13 0.12 0.11 0.10 0.10 0.10 0.09 0.09 0.09 0.09 0.09 0.09 0.09 0.09 0.09 0.09 0.08 0.08 0.08 0.07 0.07 0.08 0.10
0.19 0.23 0.23 0.18 0.16 0.17 0.18 0.19 0.20 0.20 0.20 0.21 0.20 0.17 0.17 0.17 0.17 0.17 0.16 0.15 0.13 0.09 0.11 0.13 0.14 0.13 0.09 0.11 0.13 0.13 0.14 0.16 0.17 0.17 0.18 0.19 0.20 0.21 0.21 0.22 0.22 0.22 0.23 0.24 0.26 0.28 0.29 0.31 0.31 0.32 0.31 0.31 0.31 0.30 0.29 0.27 0.25 0.23 0.21 0.19 0.17 0.15 0.14 0.13 0.11 0.10 0.10 0.09 0.09 0.09 0.09 0.09 0.09 0.09 0.09 0.09 0.09 0.09 0.08 0.08 0.08 0.08 0.08 0.08 0.08 0.08
0.18 0.19 0.18 0.19 0.22 0.21 0.21 0.18 0.22 0.23 0.22 0.20 0.17 0.16 0.16 0.14 0.15 0.14 0.14 0.14 0.10 0.09 0.13 0.15 0.14 0.15 0.09 0.10 0.14 0.16 0.18 0.18 0.17 0.16 0.17 0.18 0.19 0.20 0.21 0.22 0.22 0.22 0.23 0.24 0.26 0.28 0.29 0.30 0.31 0.31 0.31 0.31 0.30 0.29 0.28 0.27 0.25 0.23 0.20 0.19 0.17 0.15 0.14 0.12 0.11 0.10 0.09 0.09 0.09 0.09 0.09 0.09 0.09 0.09 0.09 0.09 0.08 0.08 0.08 0.08 0.08 0.08 0.08 0.08 0.08 0.08
0.14 0.15 0.18 0.20 0.24 0.20 0.19 0.17 0.18 0.20 0.21 0.19 0.17 0.16 0.12 0.10 0.11 0.08 0.11 0.09 0.09 0.09 0.13 0.16 0.16 0.13 0.11 0.13 0.15 0.17 0.18 0.19 0.19 0.19 0.18 0.19 0.20 0.21 0.21 0.22 0.22 0.22 0.23 0.24 0.26 0.28 0.29 0.29 0.30 0.30 0.31 0.31 0.30 0.29 0.28 0.27 0.25 0.23 0.20 0.18 0.16 0.15 0.13 0.12 0.11 0.10 0.09 0.09 0.09 0.09 0.09 0.09 0.09 0.09 0.09 0.09 0.08 0.08 0.08 0.08 0.08 0.08 0.08 0.08 0.08 0.08
0.12 0.17 0.18 0.19 0.20 0.23 0.20 0.15 0.15 0.15 0.17 0.17 0.15 0.14 0.12 0.09 0.08 0.07 0.09 0.10 0.10 0.12 0.16 0.16 0.17 0.12 0.13 0.14 0.17 0.17 0.18 0.20 0.20 0.20 0.21 0.20 0.21 0.21 0.21 0.22 0.22 0.22 0.23 0.24 0.26 0.27 0.29 0.29 0.30 0.31 0.31 0.31 0.30 0.29 0.28 0.27 0.25 0.22 0.20 0.18 0.16 0.15 0.14 0.12 0.11 0.10 0.09 0.09 0.09 0.10 0.10 0.09 0.09 0.09 0.09 0.09 0.09 0.09 0.09 0.08 0.08 0.08 0.08 0.08 0.08 0.08
0.09 0.09 0.14 0.17 0.14 0.21 0.19 0.17 0.17 0.16 0.17 0.16 0.18 0.16 0.14 0.13 0.11 0.08 0.09 0.08 0.09 0.10 0.13 0.16 0.14 0.11 0.10 0.12 0.18 0.19 0.20 0.20 0.21 0.21 0.22 0.22 0.22 0.22 0.23 0.23 0.23 0.23 0.23 0.24 0.25 0.27 0.28 0.30 0.31 0.31 0.30 0.30 0.29 0.29 0.28 0.27 0.25 0.22 0.19 0.18 0.16 0.15 0.14 0.12 0.11 0.10 0.09 0.09 0.09 0.10 0.10 0.09 0.09 0.09 0.09 0.09 0.09 0.09 0.09 0.08 0.08 0.08 0.08 0.08 0.08 0.08
0.11 0.11 0.14 0.20 0.19 0.20 0.18 0.20 0.21 0.19 0.17 0.18 0.19 0.19 0.15 0.14 0.17 0.12 0.13 0.12 0.11 0.11 0.10 0.12 0.12 0.14 0.13 0.18 0.19 0.20 0.20 0.20 0.21 0.21 0.22 0.22 0.22 0.23 0.22 0.22 0.22 0.22 0.23 0.24 0.25 0.27 0.28 0.30 0.31 0.31 0.30 0.29 0.29 0.28 0.28 0.27 0.24 0.21 0.19 0.17 0.16 0.15 0.14 0.13 0.11 0.10 0.10 0.09 0.10 0.10 0.10 0.09 0.09 0.09 0.09 0.09 0.09 0.09 0.09 0.08 0.08 0.08 0.08 0.08 0.08 0.08
0.12 0.10 0.17 0.19 0.20 0.19 0.19 0.21 0.20 0.21 0.12 0.17 0.18 0.15 0.16 0.20 0.18 0.15 0.14 0.16 0.15 0.13 0.09 0.14 0.13 0.15 0.19 0.18 0.20 0.19 0.18 0.18 0.20 0.21 0.21 0.21 0.22 0.22 0.22 0.22 0.22 0.22 0.23 0.23 0.25 0.26 0.27 0.29 0.31 0.31 0.30 0.29 0.28 0.28 0.27 0.26 0.24 0.21 0.19 0.17 0.16 0.16 0.15 0.13 0.11 0.10 0.10 0.10 0.10 0.10 0.10 0.09 0.09 0.09 0.09 0.09 0.09 0.08 0.08 0.08 0.08 0.08 0.08 0.08 0.08 0.08
0.11 0.11 0.16 0.16 0.15 0.20 0.22 0.22 0.21 0.22 0.21 0.19 0.15 0.17 0.21 0.22 0.20 0.16 0.12 0.13 0.12 0.10 0.10 0.12 0.11 0.12 0.14 0.11 0.18 0.17 0.17 0.18 0.20 0.21 0.21 0.21 0.22 0.22 0.22 0.22 0.22 0.22 0.23 0.24 0.25 0.26 0.27 0.29 0.30 0.31 0.30 0.29 0.28 0.28 0.27 0.26 0.24 0.21 0.19 0.17 0.16 0.16 0.15 0.13 0.11 0.10 0.10 0.10 0.10 0.10 0.10 0.09 0.09 0.09 0.09 0.09 0.09 0.08 0.08 0.08 0.08 0.08 0.08 0.08 0.08 0.08
0.16 0.10 0.14 0.18 0.18 0.20 0.22 0.21 0.19 0.21 0.24 0.19 0.18 0.23 0.17 0.14 0.13 0.16 0.15 0.10 0.10 0.09 0.10 0.11 0.13 0.13 0.15 0.14 0.16 0.15 0.16 0.17 0.19 0.21 0.21 0.21 0.22 0.22 0.22 0.22 0.23 0.23 0.23 0.24 0.25 0.25 0.26 0.28 0.30 0.31 0.30 0.29 0.28 0.28 0.27 0.26 0.24 0.22 0.19 0.18 0.16 0.16 0.15 0.14 0.12 0.10 0.11 0.11 0.10 0.10 0.10 0.09 0.09 0.09 0.09 0.09 0.09 0.08 0.08 0.08 0.08 0.08 0.08 0.08 0.08 0.09
0.18 0.11 0.12 0.18 0.18 0.20 0.20 0.19 0.13 0.16 0.20 0.22 0.23 0.20 0.22 0.19 0.16 0.14 0.15 0.15 0.15 0.11 0.11 0.10 0.12 0.11 0.16 0.16 0.17 0.17 0.18 0.19 0.20 0.21 0.21 0.21 0.22 0.23 0.23 0.22 0.22 0.22 0.23 0.24 0.24 0.25 0.26 0.27 0.29 0.30 0.30 0.30 0.29 0.28 0.27 0.26 0.24 0.22 0.20 0.18 0.17 0.16 0.16 0.14 0.12 0.11 0.11 0.11 0.11 0.10 0.10 0.10 0.09 0.09 0.09 0.09 0.08 0.08 0.08 0.08 0.08 0.08 0.08 0.09 0.09 0.09
0.15 0.17 0.10 0.15 0.19 0.19 0.14 0.17 0.15 0.16 0.15 0.16 0.17 0.17 0.19 0.18 0.21 0.19 0.18 0.16 0.15 0.13 0.12 0.12 0.09 0.11 0.17 0.20 0.19 0.19 0.20 0.21 0.21 0.21 0.22 0.22 0.23 0.24 0.24 0.23 0.23 0.23 0.23 0.24 0.25 0.25 0.25 0.26 0.28 0.30 0.30 0.30 0.30 0.29 0.28 0.27 0.25 0.23 0.20 0.19 0.17 0.16 0.15 0.15 0.13 0.11 0.11 0.11 0.11 0.11 0.10 0.10 0.09 0.09 0.09 0.09 0.09 0.08 0.09 0.09 0.09 0.09 0.09 0.09 0.09 0.10
0.15 0.15 0.11 0.13 0.14 0.14 0.15 0.19 0.19 0.18 0.18 0.17 0.17 0.17 0.18 0.17 0.16 0.14 0.12 0.18 0.17 0.15 0.14 0.13 0.11 0.13 0.19 0.22 0.22 0.21 0.22 0.22 0.23 0.23 0.22 0.23 0.24 0.24 0.24 0.24 0.24 0.24 0.24 0.25 0.25 0.25 0.26 0.26 0.28 0.29 0.31 0.30 0.30 0.29 0.28 0.27 0.26 0.23 0.21 0.19 0.18 0.17 0.15 0.15 0.13 0.12 0.11 0.12 0.11 0.11 0.10 0.10 0.09 0.09 0.09 0.09 0.09 0.09 0.09 0.09 0.09 0.09 0.09 0.09 0.10 0.10
0.18 0.17 0.14 0.12 0.13 0.14 0.16 0.19 0.21 0.21 0.20 0.20 0.20 0.18 0.20 0.19 0.18 0.16 0.12 0.14 0.17 0.17 0.18 0.16 0.14 0.11 0.20 0.23 0.23 0.23 0.23 0.24 0.24 0.24 0.23 0.24 0.24 0.25 0.25 0.26 0.26 0.25 0.25 0.26 0.26 0.26 0.27 0.28 0.29 0.30 0.31 0.31 0.30 0.30 0.29 0.28 0.26 0.24 0.22 0.20 0.19 0.17 0.16 0.15 0.14 0.12 0.12 0.12 0.12 0.11 0.10 0.10 0.10 0.09 0.09 0.09 0.09 0.09 0.09 0.09 0.09 0.09 0.09 0.10 0.10 0.11
0.20 0.15 0.12 0.12 0.15 0.16 0.18 0.20 0.21 0.21 0.21 0.19 0.20 0.21 0.20 0.17 0.18 0.17 0.17 0.18 0.16 0.16 0.16 0.16 0.13 0.13 0.20 0.24 0.24 0.24 0.25 0.25 0.25 0.25 0.25 0.25 0.26 0.27 0.27 0.27 0.26 0.26 0.26 0.27 0.28 0.28 0.29 0.29 0.30 0.30 0.31 0.32 0.31 0.31 0.30 0.28 0.27 0.25 0.23 0.21 0.20 0.18 0.16 0.15 0.14 0.13 0.12 0.13 0.12 0.11 0.11 0.10 0.10 0.09 0.09 0.09 0.09 0.09 0.09 0.09 0.09 0.10 0.10 0.10 0.10 0.11
0.14 0.15 0.14 0.11 0.10 0.11 0.13 0.16 0.17 0.20 0.20 0.18 0.17 0.19 0.20 0.20 0.20 0.20 0.20 0.19 0.16 0.15 0.17 0.16 0.12 0.14 0.20 0.24 0.25 0.25 0.25 0.24 0.25 0.27 0.28 0.26 0.26 0.27 0.27 0.27 0.27 0.26 0.27 0.27 0.28 0.29 0.30 0.30 0.31 0.32 0.33 0.33 0.32 0.32 0.31 0.29 0.27 0.26 0.24 0.23 0.21 0.19 0.17 0.16 0.15 0.13 0.13 0.13 0.13 0.12 0.11 0.10 0.10 0.09 0.09 0.09 0.09 0.09 0.10 0.10 0.10 0.10 0.10 0.10 0.11 0.11
0.16 0.15 0.13 0.10 0.08 0.07 0.07 0.08 0.10 0.12 0.15 0.17 0.18 0.19 0.20 0.19 0.19 0.18 0.16 0.17 0.14 0.16 0.17 0.16 0.15 0.17 0.21 0.24 0.24 0.24 0.25 0.25 0.27 0.28 0.28 0.27 0.26 0.26 0.26 0.26 0.26 0.27 0.27 0.28 0.29 0.29 0.29 0.30 0.32 0.33 0.34 0.34 0.34 0.33 0.32 0.30 0.28 0.26 0.25 0.23 0.22 0.20 0.18 0.17 0.16 0.14 0.13 0.13 0.13 0.12 0.11 0.10 0.10 0.10 0.09 0.10 0.10 0.10 0.10 0.10 0.10 0.10 0.10 0.11 0.11 0.11
0.15 0.16 0.15 0.13 0.12 0.11 0.12 0.14 0.17 0.18 0.17 0.15 0.17 0.18 0.19 0.20 0.20 0.20 0.19 0.16 0.15 0.17 0.16 0.17 0.19 0.18 0.18 0.21 0.22 0.23 0.24 0.25 0.26 0.25 0.25 0.25 0.26 0.26 0.27 0.27 0.28 0.29 0.29 0.30 0.31 0.31 0.31 0.31 0.32 0.34 0.34 0.35 0.34 0.34 0.32 0.30 0.28 0.27 0.25 0.24 0.22 0.21 0.20 0.18 0.16 0.15 0.13 0.13 0.13 0.13 0.12 0.11 0.10 0.10 0.10 0.10 0.10 0.10 0.10 0.10 0.10 0.10 0.10 0.11 0.11 0.11
0.15 0.13 0.14 0.15 0.14 0.15 0.16 0.16 0.18 0.18 0.16 0.16 0.17 0.17 0.19 0.19 0.20 0.19 0.17 0.16 0.19 0.18 0.15 0.18 0.21 0.19 0.19 0.21 0.22 0.23 0.25 0.25 0.25 0.25 0.25 0.25 0.25 0.26 0.27 0.28 0.29 0.30 0.31 0.32 0.32 0.33 0.33 0.34 0.34 0.34 0.35 0.35 0.34 0.34 0.32 0.31 0.29 0.27 0.25 0.23 0.23 0.22 0.20 0.19 0.17 0.15 0.14 0.14 0.14 0.13 0.12 0.11 0.10 0.10 0.10 0.10 0.10 0.10 0.10 0.10 0.10 0.10 0.11 0.11 0.11 0.11
0.15 0.12 0.14 0.15 0.14 0.16 0.17 0.17 0.19 0.18 0.18 0.18 0.18 0.19 0.19 0.20 0.20 0.18 0.18 0.20 0.21 0.18 0.16 0.19 0.21 0.20 0.21 0.22 0.24 0.25 0.26 0.25 0.25 0.25 0.25 0.26 0.26 0.27 0.28 0.28 0.29 0.29 0.31 0.32 0.33 0.34 0.34 0.35 0.35 0.35 0.35 0.35 0.34 0.33 0.32 0.30 0.29 0.27 0.25 0.23 0.22 0.22 0.21 0.20 0.18 0.16 0.15 0.14 0.14 0.14 0.13 0.12 0.11 0.10 0.10 0.10 0.10 0.10 0.10 0.10 0.10 0.10 0.11 0.11 0.11 0.12
0.17 0.14 0.15 0.16 0.15 0.16 0.17 0.18 0.19 0.18 0.18 0.18 0.19 0.20 0.20 0.20 0.20 0.20 0.20 0.21 0.21 0.20 0.21 0.21 0.21 0.21 0.23 0.24 0.25 0.26 0.26 0.26 0.26 0.27 0.27 0.26 0.27 0.27 0.27 0.27 0.27 0.28 0.30 0.32 0.34 0.35 0.36 0.36 0.36 0.36 0.35 0.34 0.33 0.32 0.31 0.30 0.29 0.27 0.25 0.23 0.23 0.22 0.21 0.20 0.19 0.17 0.16 0.15 0.14 0.14 0.13 0.12 0.11 0.11 0.10 0.10 0.10 0.10 0.10 0.10 0.10 0.10 0.11 0.11 0.11 0.12
0.17 0.14 0.21 0.18 0.15 0.14 0.17 0.18 0.19 0.19 0.18 0.17 0.18 0.20 0.21 0.21 0.21 0.21 0.21 0.22 0.23 0.22 0.22 0.22 0.21 0.21 0.24 0.27 0.27 0.27 0.27 0.28 0.27 0.26 0.25 0.26 0.27 0.28 0.27 0.27 0.28 0.29 0.31 0.33 0.34 0.35 0.36 0.36 0.36 0.36 0.35 0.34 0.32 0.31 0.30 0.29 0.28 0.27 0.25 0.24 0.23 0.22 0.21 0.21 0.19 0.18 0.16 0.16 0.15 0.14 0.14 0.13 0.12 0.11 0.11 0.10 0.10 0.10 0.10 0.10 0.10 0.11 0.11 0.11 0.12 0.12
0.19 0.16 0.18 0.16 0.14 0.13 0.17 0.17 0.18 0.19 0.19 0.18 0.17 0.19 0.20 0.20 0.19 0.20 0.21 0.23 0.22 0.20 0.21 0.21 0.20 0.20 0.24 0.27 0.28 0.28 0.27 0.26 0.26 0.26 0.27 0.27 0.28 0.28 0.28 0.29 0.30 0.32 0.33 0.34 0.35 0.35 0.35 0.35 0.35 0.35 0.34 0.33 0.32 0.30 0.29 0.28 0.27 0.25 0.25 0.24 0.23 0.23 0.22 0.21 0.20 0.18 0.17 0.16 0.16 0.15 0.14 0.14 0.12 0.11 0.11 0.11 0.10 0.10 0.10 0.10 0.10 0.11 0.11 0.11 0.12 0.12
0.18 0.17 0.16 0.16 0.13 0.13 0.17 0.18 0.17 0.18 0.17 0.16 0.17 0.19 0.20 0.21 0.22 0.23 0.23 0.24 0.23 0.24 0.21 0.19 0.20 0.24 0.26 0.28 0.26 0.25 0.26 0.27 0.27 0.27 0.26 0.24 0.25 0.25 0.26 0.26 0.26 0.27 0.27 0.28 0.29 0.30 0.31 0.32 0.32 0.31 0.31 0.30 0.30 0.29 0.28 0.27 0.26 0.24 0.24 0.23 0.23 0.23 0.23 0.21 0.20 0.19 0.17 0.17 0.16 0.16 0.15 0.14 0.13 0.12 0.11 0.11 0.11 0.10 0.10 0.10 0.10 0.11 0.11 0.11 0.12 0.12
0.20 0.19 0.17 0.18 0.14 0.14 0.16 0.17 0.18 0.16 0.12 0.14 0.21 0.23 0.22 0.20 0.21 0.20 0.20 0.22 0.24 0.24 0.23 0.24 0.25 0.27 0.27 0.27 0.26 0.26 0.25 0.24 0.24 0.24 0.23 0.23 0.24 0.25 0.25 0.25 0.25 0.25 0.24 0.25 0.25 0.26 0.26 0.27 0.27 0.28 0.28 0.27 0.27 0.27 0.27 0.26 0.25 0.24 0.23 0.22 0.22 0.23 0.23 0.22 0.21 0.20 0.18 0.17 0.17 0.16 0.15 0.14 0.14 0.12 0.11 0.11 0.11 0.11 0.10 0.10 0.10 0.11 0.11 0.11 0.12 0.12
0.20 0.20 0.18 0.19 0.16 0.14 0.17 0.17 0.14 0.11 0.13 0.20 0.23 0.24 0.24 0.23 0.23 0.21 0.22 0.23 0.24 0.25 0.25 0.25 0.26 0.27 0.27 0.28 0.27 0.24 0.23 0.23 0.24 0.23 0.22 0.24 0.27 0.26 0.25 0.24 0.24 0.24 0.24 0.24 0.24 0.24 0.25 0.25 0.25 0.24 0.24 0.25 0.25 0.25 0.25 0.24 0.24 0.23 0.22 0.22 0.22 0.22 0.22 0.23 0.22 0.21 0.19 0.17 0.16 0.16 0.16 0.15 0.14 0.13 0.12 0.12 0.11 0.11 0.10 0.10 0.11 0.11 0.11 0.11 0.11 0.12
0.20 0.19 0.19 0.18 0.18 0.18 0.16 0.15 0.11 0.12 0.18 0.21 0.22 0.23 0.24 0.24 0.24 0.22 0.21 0.24 0.26 0.25 0.26 0.25 0.27 0.28 0.26 0.24 0.23 0.23 0.23 0.23 0.24 0.24 0.25 0.26 0.27 0.25 0.25 0.25 0.25 0.24 0.24 0.24 0.24 0.24 0.24 0.24 0.24 0.24 0.24 0.24 0.24 0.24 0.24 0.24 0.24 0.22 0.21 0.21 0.21 0.21 0.22 0.22 0.22 0.21 0.19 0.18 0.17 0.16 0.16 0.15 0.14 0.14 0.13 0.12 0.11 0.11 0.11 0.10 0.10 0.11 0.11 0.11 0.11 0.12
0.23 0.22 0.21 0.17 0.19 0.15 0.15 0.15 0.14 0.18 0.17 0.19 0.19 0.20 0.22 0.20 0.21 0.20 0.17 0.20 0.25 0.26 0.27 0.27 0.26 0.23 0.22 0.21 0.22 0.22 0.23 0.24 0.23 0.23 0.25 0.26 0.26 0.26 0.26 0.26 0.26 0.25 0.25 0.25 0.25 0.25 0.26 0.26 0.25 0.25 0.25 0.24 0.24 0.23 0.24 0.23 0.23 0.22 0.21 0.20 0.21 0.21 0.21 0.21 0.22 0.21 0.20 0.18 0.17 0.16 0.16 0.16 0.15 0.14 0.14 0.13 0.12 0.11 0.11 0.11 0.10 0.11 0.11 0.11 0.11 0.12
0.26 0.21 0.22 0.18 0.17 0.19 0.15 0.13 0.13 0.13 0.12 0.16 0.20 0.23 0.25 0.25 0.25 0.24 0.22 0.19 0.25 0.28 0.29 0.24 0.20 0.20 0.20 0.20 0.21 0.23 0.24 0.22 0.19 0.20 0.23 0.26 0.27 0.27 0.27 0.27 0.27 0.26 0.26 0.26 0.26 0.25 0.25 0.25 0.25 0.24 0.23 0.22 0.22 0.22 0.23 0.22 0.21 0.21 0.20 0.20 0.20 0.20 0.20 0.20 0.21 0.21 0.20 0.19 0.18 0.17 0.16 0.16 0.15 0.14 0.14 0.13 0.12 0.12 0.11 0.11 0.11 0.11 0.11 0.11 0.11 0.11
0.26 0.24 0.22 0.19 0.17 0.17 0.16 0.14 0.13 0.12 0.14 0.19 0.20 0.23 0.25 0.26 0.25 0.25 0.21 0.17 0.25 0.26 0.23 0.22 0.20 0.20 0.20 0.21 0.22 0.23 0.21 0.19 0.18 0.20 0.24 0.26 0.27 0.27 0.27 0.26 0.26 0.25 0.25 0.25 0.24 0.24 0.23 0.23 0.23 0.22 0.22 0.22 0.21 0.22 0.21 0.20 0.19 0.19 0.19 0.19 0.19 0.19 0.19 0.19 0.20 0.20 0.20 0.20 0.18 0.17 0.17 0.16 0.15 0.15 0.14 0.14 0.13 0.12 0.12 0.11 0.11 0.11 0.11 0.11 0.11 0.11
0.21 0.21 0.21 0.18 0.17 0.17 0.16 0.14 0.13 0.15 0.15 0.19 0.22 0.24 0.26 0.26 0.26 0.22 0.14 0.14 0.23 0.22 0.22 0.22 0.20 0.20 0.21 0.22 0.23 0.22 0.21 0.19 0.20 0.22 0.25 0.27 0.27 0.27 0.26 0.25 0.24 0.23 0.23 0.24 0.24 0.24 0.23 0.23 0.22 0.21 0.21 0.21 0.22 0.21 0.20 0.19 0.19 0.18 0.18 0.18 0.18 0.18 0.18 0.18 0.17 0.17 0.19 0.20 0.19 0.18 0.17 0.16 0.16 0.15 0.15 0.14 0.14 0.13 0.12 0.12 0.11 0.11 0.11 0.11 0.11 0.11
0.19 0.19 0.19 0.16 0.16 0.17 0.16 0.15 0.16 0.16 0.21 0.24 0.24 0.26 0.26 0.26 0.22 0.15 0.13 0.18 0.21 0.22 0.22 0.22 0.21 0.22 0.23 0.23 0.24 0.22 0.23 0.25 0.25 0.27 0.28 0.28 0.27 0.25 0.24 0.24 0.23 0.23 0.23 0.23 0.23 0.23 0.22 0.21 0.21 0.21 0.21 0.22 0.22 0.21 0.21 0.20 0.19 0.19 0.18 0.18 0.17 0.17 0.19 0.17 0.15 0.16 0.18 0.19 0.19 0.18 0.17 0.16 0.16 0.15 0.15 0.14 0.14 0.14 0.13 0.12 0.11 0.11 0.11 0.11 0.11 0.11
0.18 0.18 0.17 0.18 0.16 0.15 0.16 0.14 0.15 0.18 0.23 0.26 0.27 0.27 0.27 0.21 0.15 0.15 0.20 0.24 0.23 0.21 0.22 0.23 0.23 0.24 0.25 0.25 0.25 0.25 0.26 0.27 0.27 0.27 0.27 0.26 0.24 0.23 0.23 0.22 0.21 0.21 0.21 0.22 0.22 0.22 0.21 0.21 0.20 0.20 0.21 0.22 0.22 0.22 0.21 0.21 0.20 0.19 0.19 0.18 0.18 0.19 0.19 0.16 0.14 0.15 0.16 0.18 0.19 0.18 0.17 0.16 0.16 0.15 0.15 0.14 0.14 0.14 0.13 0.12 0.12 0.11 0.11 0.11 0.11 0.11
0.16 0.15 0.14 0.15 0.17 0.17 0.17 0.16 0.15 0.14 0.22 0.28 0.26 0.24 0.25 0.19 0.19 0.24 0.24 0.23 0.24 0.24 0.24 0.25 0.26 0.26 0.27 0.25 0.25 0.25 0.25 0.25 0.25 0.24 0.23 0.22 0.21 0.20 0.20 0.19 0.19 0.20 0.20 0.21 0.21 0.23 0.23 0.21 0.20 0.19 0.19 0.20 0.20 0.20 0.20 0.20 0.20 0.20 0.19 0.19 0.20 0.20 0.18 0.16 0.14 0.14 0.15 0.16 0.17 0.18 0.17 0.16 0.15 0.15 0.15 0.14 0.14 0.14 0.13 0.13 0.12 0.11 0.11 0.11 0.10 0.10
0.20 0.16 0.16 0.17 0.20 0.16 0.16 0.16 0.17 0.22 0.25 0.27 0.24 0.20 0.22 0.24 0.26 0.26 0.24 0.23 0.24 0.25 0.26 0.26 0.26 0.26 0.26 0.26 0.25 0.24 0.23 0.23 0.22 0.21 0.20 0.19 0.18 0.18 0.18 0.18 0.20 0.21 0.21 0.22 0.23 0.24 0.24 0.22 0.21 0.20 0.19 0.19 0.19 0.19 0.20 0.20 0.20 0.20 0.20 0.20 0.22 0.19 0.18 0.17 0.15 0.14 0.15 0.15 0.16 0.17 0.17 0.16 0.15 0.15 0.14 0.14 0.13 0.13 0.13 0.13 0.12 0.12 0.11 0.11 0.11 0.10
0.21 0.19 0.21 0.18 0.23 0.21 0.19 0.21 0.24 0.25 0.24 0.25 0.24 0.23 0.25 0.27 0.27 0.26 0.25 0.25 0.24 0.25 0.27 0.25 0.25 0.25 0.25 0.24 0.23 0.22 0.21 0.21 0.21 0.20 0.18 0.17 0.17 0.17 0.18 0.19 0.20 0.20 0.21 0.22 0.22 0.23 0.24 0.23 0.22 0.21 0.20 0.19 0.18 0.18 0.19 0.19 0.18 0.19 0.20 0.22 0.21 0.20 0.19 0.17 0.15 0.15 0.15 0.15 0.15 0.16 0.16 0.16 0.15 0.15 0.14 0.14 0.13 0.13 0.12 0.12 0.12 0.12 0.11 0.11 0.11 0.11
0.25 0.26 0.27 0.24 0.23 0.26 0.25 0.23 0.23 0.23 0.23 0.23 0.24 0.25 0.25 0.25 0.25 0.26 0.25 0.25 0.25 0.26 0.26 0.25 0.25 0.24 0.23 0.23 0.22 0.21 0.20 0.19 0.18 0.17 0.17 0.17 0.17 0.18 0.19 0.19 0.19 0.20 0.21 0.22 0.22 0.22 0.23 0.23 0.23 0.22 0.21 0.20 0.19 0.18 0.17 0.17 0.17 0.17 0.18 0.21 0.21 0.21 0.20 0.18 0.16 0.15 0.15 0.15 0.15 0.15 0.16 0.16 0.15 0.15 0.14 0.13 0.13 0.13 0.12 0.12 0.12 0.12 0.11 0.11 0.11 0.11
0.26 0.27 0.25 0.22 0.24 0.20 0.17 0.20 0.20 0.22 0.23 0.24 0.23 0.24 0.24 0.25 0.25 0.26 0.25 0.25 0.25 0.25 0.24 0.24 0.24 0.23 0.23 0.23 0.21 0.19 0.18 0.18 0.18 0.18 0.18 0.18 0.17 0.17 0.18 0.18 0.19 0.20 0.21 0.21 0.22 0.23 0.22 0.22 0.21 0.20 0.21 0.21 0.21 0.20 0.18 0.17 0.17 0.18 0.18 0.18 0.19 0.21 0.20 0.19 0.17 0.16 0.15 0.15 0.14 0.15 0.16 0.16 0.16 0.15 0.14 0.13 0.13 0.12 0.12 0.12 0.12 0.12 0.11 0.11 0.11 0.11
0.22 0.26 0.22 0.22 0.21 0.19 0.19 0.21 0.23 0.25 0.26 0.25 0.25 0.23 0.23 0.24 0.24 0.24 0.25 0.26 0.26 0.25 0.24 0.24 0.24 0.23 0.22 0.19 0.19 0.19 0.18 0.19 0.19 0.18 0.17 0.17 0.17 0.18 0.18 0.19 0.20 0.21 0.22 0.23 0.24 0.23 0.23 0.22 0.22 0.21 0.21 0.21 0.23 0.22 0.20 0.19 0.18 0.19 0.19 0.19 0.18 0.19 0.20 0.19 0.18 0.17 0.16 0.15 0.14 0.14 0.15 0.16 0.16 0.15 0.14 0.14 0.13 0.12 0.12 0.12 0.11 0.11 0.11 0.11 0.11 0.11
0.24 0.25 0.21 0.23 0.21 0.22 0.24 0.24 0.24 0.25 0.25 0.25 0.24 0.24 0.24 0.23 0.22 0.23 0.24 0.24 0.24 0.23 0.23 0.22 0.22 0.20 0.20 0.19 0.20 0.20 0.19 0.19 0.18 0.18 0.18 0.18 0.18 0.19 0.19 0.20 0.21 0.22 0.24 0.24 0.25 0.24 0.23 0.23 0.22 0.22 0.22 0.21 0.23 0.24 0.23 0.21 0.20 0.20 0.19 0.19 0.19 0.18 0.17 0.18 0.19 0.18 0.16 0.16 0.15 0.14 0.15 0.15 0.16 0.16 0.15 0.14 0.13 0.13 0.12 0.11 0.11 0.11 0.11 0.11 0.12 0.11
0.24 0.22 0.24 0.24 0.21 0.21 0.20 0.21 0.23 0.19 0.17 0.19 0.21 0.22 0.22 0.23 0.23 0.23 0.23 0.23 0.22 0.21 0.20 0.18 0.18 0.19 0.19 0.19 0.19 0.19 0.18 0.18 0.19 0.20 0.19 0.20 0.20 0.21 0.21 0.21 0.22 0.23 0.24 0.25 0.26 0.26 0.25 0.24 0.23 0.23 0.22 0.23 0.23 0.24 0.24 0.23 0.23 0.22 0.21 0.20 0.19 0.19 0.18 0.18 0.18 0.18 0.17 0.16 0.15 0.15 0.14 0.15 0.16 0.16 0.15 0.15 0.14 0.13 0.12 0.12 0.12 0.11 0.11 0.11 0.11 0.12
0.23 0.24 0.25 0.22 0.21 0.19 0.21 0.22 0.24 0.23 0.21 0.21 0.21 0.21 0.22 0.23 0.23 0.22 0.21 0.20 0.19 0.19 0.19 0.19 0.17 0.17 0.16 0.16 0.17 0.17 0.17 0.18 0.18 0.20 0.20 0.20 0.21 0.22 0.22 0.22 0.22 0.22 0.23 0.25 0.25 0.25 0.25 0.25 0.24 0.23 0.23 0.23 0.24 0.24 0.24 0.24 0.24 0.23 0.22 0.21 0.20 0.19 0.19 0.18 0.17 0.17 0.17 0.16 0.15 0.15 0.15 0.15 0.15 0.15 0.15 0.15 0.14 0.13 0.12 0.12 0.11 0.12 0.12 0.11 0.11 0.12
Wind_Speed
6 6 7 7 8 9 10 9 9 10 10 11 11 12 14 15 17 17 18 19 17 18 19 18 19 21 22 22 21 20 19 20 21 22 23 24 25 26 27 27 28 29 30 30 30 31 31 32 32 33 33 34 36 36 37 38 40 42 43 44 45 47 48 49 51 52 52 52 51 51 50 50 50 49 47 45 44 43 43 42 40 38 35 32 32 32
7 6 7 9 9 9 9 9 10 11 11 11 12 14 16 16 17 18 18 19 19 19 20 19 21 22 21 22 21 19 18 20 21 22 24 24 25 27 27 28 29 29 30 30 30 31 31 32 32 33 34 34 36 37 38 39 40 42 43 44 45 47 48 49 51 51 51 50 50 50 50 50 49 48 47 44 43 43 42 41 39 37 34 32 30 30
8 7 9 10 8 8 10 10 11 11 11 12 13 14 16 17 18 19 18 20 20 20 21 21 22 24 22 21 20 18 18 20 21 22 24 25 25 27 28 28 29 29 30 30 31 31 31 32 32 33 34 35 36 37 38 39 40 42 43 44 45 46 48 49 50 50 50 49 49 49 50 50 49 47 46 44 43 42 41 39 38 35 33 31 29 28
8 9 10 9 8 8 11 12 12 12 13 13 13 15 17 18 18 19 20 21 21 21 21 22 24 24 21 21 20 19 19 21 22 23 25 25 26 28 28 29 29 29 30 30 31 31 32 32 33 33 34 35 36 37 38 39 41 42 43 44 45 46 48 49 50 50 49 49 49 49 49 49 48 47 45 44 43 42 40 38 37 34 32 30 28 27
9 10 10 9 10 10 11 13 13 13 15 15 14 14 17 18 18 19 21 22 22 21 20 22 24 22 20 21 22 20 20 22 23 24 26 26 27 29 29 29 29 30 30 30 31 32 32 33 33 34 34 35 36 37 38 39 41 42 43 44 45 46 48 49 49 49 48 48 48 49 49 49 47 46 44 43 42 41 40 38 36 33 31 29 27 25
10 11 10 10 11 11 11 13 14 13 16 17 16 15 17 19 20 21 22 22 22 20 19 21 22 21 22 22 22 21 21 23 23 25 27 28 28 29 29 30 30 30 30 31 31 32 32 33 33 34 35 35 36 37 38 40 41 42 42 43 45 46 48 48 48 48 47 47 48 48 48 48 46 45 43 42 41 41 40 38 35 33 30 28 26 25
10 11 11 11 11 12 12 14 15 14 15 17 17 16 17 19 20 22 22 21 20 19 20 20 19 21 24 23 22 22 23 24 24 25 28 29 29 29 30 30 30 30 31 31 32 32 33 33 33 34 35 35 36 37 38 40 40 41 42 43 45 46 47 47 47 47 46 46 47 47 47 46 45 44 42 41 40 40 39 37 35 32 29 27 26 24
11 12 12 12 12 13 13 15 15 14 15 17 17 16 18 20 21 22 20 19 20 21 22 21 19 21 24 23 22 22 23 25 25 26 28 29 29 30 30 30 30 30 31 31 32 33 33 34 34 35 35 35 36 37 38 39 40 41 42 43 45 46 46 46 46 46 45 46 47 46 46 45 44 43 42 40 39 38 38 36 34 30 28 26 25 24
12 12 13 13 13 14 14 15 14 14 16 18 17 17 19 20 21 20 18 19 20 21 22 21 19 21 24 24 23 23 24 25 26 27 28 28 29 30 30 30 31 31 31 31 32 33 33 34 35 35 35 35 36 37 38 39 40 41 42 43 44 45 46 46 45 45 45 46 46 45 44 44 43 42 41 40 38 37 36 35 32 29 27 25 24 23
13 13 14 13 13 15 15 15 14 14 17 19 18 18 19 20 20 19 18 19 20 20 21 20 19 20 24 25 23 22 24 24 26 27 27 29 29 29 30 30 30 31 31 31 32 33 33 34 35 35 35 35 36 37 38 39 40 41 43 43 44 45 45 45 45 44 44 45 44 44 43 42 42 41 40 39 37 36 35 33 31 28 26 24 23 22
14 14 14 14 15 15 15 16 16 16 19 20 19 19 20 20 20 19 19 19 19 20 20 20 20 21 23 25 22 23 23 23 25 27 28 29 30 30 30 30 30 30 30 31 32 32 33 34 35 35 35 35 36 37 38 39 40 41 42 43 43 44 44 44 44 44 44 44 43 43 42 41 41 40 39 38 36 35 34 32 30 28 26 24 23 22
15 15 16 16 16 15 16 17 17 18 19 19 19 20 21 21 20 19 20 19 18 20 21 21 22 21 22 25 24 24 25 24 25 27 28 29 30 31 30 30 30 30 30 31 31 32 33 33 34 34 35 35 36 37 38 39 40 41 42 42 43 43 43 44 44 43 43 43 42 42 41 40 40 39 38 37 35 34 32 31 29 28 26 25 24 23
16 16 16 16 16 16 16 18 19 19 19 19 19 20 20 21 20 19 20 19 19 21 21 22 23 22 23 26 26 26 27 26 25 27 28 29 30 31 31 30 30 30 31 31 31 32 33 33 34 34 34 35 36 37 37 39 40 41 41 42 42 43 43 44 43 42 42 42 41 40 40 39 39 38 37 36 35 33 31 30 29 28 27 26 24 23
16 17 16 16 17 16 16 17 19 20 20 20 19 18 18 19 20 21 21 21 22 23 23 23 23 23 25 26 27 26 26 26 27 27 28 29 31 32 31 31 31 31 31 31 32 32 33 34 34 34 34 35 36 37 37 38 40 40 41 41 42 42 43 43 43 42 41 41 40 39 39 38 38 37 36 35 34 32 30 29 29 27 26 25 24 23
15 17 16 15 16 17 17 17 18 19 20 20 18 17 18 17 18 21 21 21 24 25 25 24 22 21 23 26 26 25 25 27 28 28 29 30 31 32 32 32 32 32 32 32 33 33 34 34 34 34 35 35 36 37 37 38 39 40 41 41 41 42 42 42 42 41 40 40 40 39 38 38 37 36 36 34 33 31 30 29 28 27 26 25 24 23
15 17 17 17 17 18 18 18 18 18 19 19 18 18 19 19 18 20 21 21 23 25 25 23 22 22 25 29 27 24 26 28 29 29 29 31 32 32 32 33 33 34 33 33 33 34 35 35 35 35 35 35 36 36 37 38 39 40 40 40 41 41 42 42 42 40 39 39 39 38 37 37 36 35 35 33 32 30 29 29 28 27 26 25 25 24
16 17 18 18 19 18 18 18 18 19 19 19 20 20 21 20 19 20 22 23 22 24 25 23 24 27 27 28 27 25 28 29 29 29 30 31 33 32 33 34 34 34 34 34 34 35 35 35 35 35 35 35 36 36 37 38 39 39 40 40 41 41 41 41 41 40 39 39 38 37 37 36 35 35 34 33 31 30 29 29 28 27 26 25 24 24
16 19 19 18 18 19 18 18 19 20 20 20 20 21 21 21 20 20 22 23 22 23 25 24 26 28 26 26 27 27 28 29 30 30 31 32 33 33 34 35 35 35 35 35 35 35 35 36 36 36 36 36 36 37 37 38 39 39 40 40 40 41 41 41 41 39 38 38 37 37 36 35 35 34 33 32 30 30 29 29 28 27 26 25 24 23
17 19 20 18 18 20 19 19 21 21 20 20 21 20 20 21 21 21 21 22 23 24 26 26 26 26 24 25 27 27 27 29 31 31 31 32 33 34 35 35 36 36 35 35 35 35 36 36 36 36 36 36 36 37 37 38 39 39 40 40 40 40 40 40 40 39 38 37 37 36 35 35 34 33 32 31 30 29 29 28 27 26 25 24 23 22
17 18 19 19 19 20 20 20 21 21 21 21 21 21 21 21 21 22 21 21 22 23 26 27 26 25 24 24 25 27 29 30 32 32 31 32 33 35 36 36 36 36 35 35 35 36 36 36 36 36 36 37 37 37 38 38 38 39 39 40 40 40 40 40 39 38 37 37 36 35 35 34 33 32 31 30 30 29 29 28 27 26 25 23 22 21
18 18 20 21 21 21 21 21 21 20 21 21 22 22 22 22 22 23 23 22 21 22 23 25 27 27 24 23 25 28 30 31 32 32 31 32 34 36 36 37 37 36 36 36 36 37 37 37 37 37 37 37 37 38 38 38 38 39 39 40 40 40 40 39 39 38 37 36 35 35 34 33 32 31 31 30 29 29 28 27 26 25 24 23 22 21
19 19 20 22 22 22 22 22 22 21 21 21 22 22 21 21 21 22 24 24 23 22 22 23 28 30 26 23 25 27 30 32 32 32 32 34 36 37 38 38 37 37 37 37 37 37 37 37 38 38 38 38 38 38 38 38 38 39 39 40 40 39 39 39 39 38 37 35 35 34 33 33 32 31 30 30 29 28 27 26 25 24 23 22 21 20
19 19 21 23 23 22 23 23 22 22 21 21 22 22 22 21 21 21 23 25 24 23 23 23 26 30 27 24 25 28 30 32 33 32 33 35 37 38 39 39 38 38 39 38 38 38 38 38 38 38 38 38 38 39 38 38 38 38 39 39 39 39 39 39 38 38 36 35 34 34 33 32 31 30 30 29 29 28 26 25 24 23 22 21 20 20
20 20 22 24 24 23 23 23 22 21 21 21 23 23 22 22 22 22 24 25 25 24 24 23 26 31 30 26 27 30 32 33 33 33 34 36 38 39 40 40 40 40 40 40 39 39 39 39 39 39 39 39 39 39 39 39 38 38 39 39 39 39 39 39 38 38 36 35 34 33 32 32 31 30 29 29 28 27 26 25 24 22 21 21 20 19
21 21 21 23 25 24 23 22 22 23 22 23 25 24 23 23 22 24 25 25 26 26 24 22 27 32 31 29 30 32 33 33 34 34 35 36 38 40 41 41 41 41 41 41 40 40 40 40 40 40 40 40 40 40 39 39 39 39 38 38 39 39 39 39 38 37 36 35 33 33 32 31 30 30 29 28 27 26 25 24 23 22 21 20 19 18
22 21 21 22 22 23 23 24 24 25 25 25 26 25 25 24 22 24 25 24 26 27 24 23 30 36 35 33 34 34 33 35 36 37 37 37 38 41 42 42 42 42 42 42 42 41 41 41 41 41 41 41 41 40 39 39 39 39 39 38 38 39 38 38 38 37 36 35 33 32 31 31 30 29 28 27 26 25 24 23 22 21 20 19 18 17
22 23 23 22 23 24 26 26 25 26 27 28 27 26 26 26 25 24 24 25 27 27 28 29 33 38 39 36 36 35 34 36 37 38 39 39 40 42 43 43 43 43 43 43 43 42 42 42 43 43 43 42 41 41 40 39 39 39 39 38 38 38 38 38 37 37 36 35 33 32 31 30 30 29 28 27 26 25 23 22 21 21 20 18 17 17
22 25 24 24 26 27 28 28 27 27 28 30 30 28 26 26 26 25 27 29 27 26 31 33 31 33 37 37 36 35 36 37 37 38 40 41 42 44 45 45 45 45 45 44 44 44 44 44 44 44 43 43 42 41 40 40 39 39 39 39 38 38 38 37 37 37 36 35 33 32 31 30 29 29 27 26 25 24 23 22 21 20 19 18 17 16
22 26 25 25 27 29 29 29 28 28 29 29 29 28 27 26 26 27 30 30 27 28 33 34 32 33 36 37 35 36 37 38 40 41 42 43 44 46 47 47 47 47 47 46 46 46 45 45 45 44 44 43 41 41 40 40 39 39 39 39 39 38 38 37 37 36 36 35 33 32 31 30 29 28 27 26 25 24 22 21 21 20 19 18 17 17
23 26 26 26 28 29 28 28 28 27 28 28 29 29 27 26 26 27 29 29 27 31 34 35 36 36 35 35 36 37 39 40 41 43 44 45 46 47 48 48 48 48 48 48 48 47 47 46 45 44 43 42 41 41 40 40 39 39 39 39 39 38 38 37 36 36 35 35 34 32 31 29 29 28 27 26 25 23 22 21 20 19 19 18 18 17
24 26 26 26 29 29 27 26 26 25 26 29 30 28 24 24 25 26 28 27 27 30 33 34 36 35 33 33 35 38 40 41 42 43 45 47 48 48 48 49 49 50 50 49 49 48 47 46 46 44 43 42 41 41 41 40 40 39 39 39 39 39 38 37 36 36 35 35 34 32 31 29 28 28 27 26 25 23 22 21 20 19 19 18 18 18
24 26 26 26 28 28 26 26 26 27 28 29 28 26 23 23 25 25 24 24 25 29 32 32 32 33 32 34 36 38 40 41 43 45 47 48 49 49 49 50 51 51 51 50 49 48 48 47 46 45 44 44 43 42 41 40 40 40 40 40 39 39 38 37 37 36 35 34 33 32 31 29 28 27 27 26 25 24 22 21 20 20 19 19 18 18
23 25 26 26 27 28 26 26 28 28 27 24 23 24 23 23 23 23 24 24 25 27 29 30 31 32 34 36 39 41 42 43 44 46 47 48 50 50 51 51 51 51 51 50 50 49 48 48 47 46 46 45 43 42 42 41 40 40 40 40 39 39 38 38 37 36 35 34 33 33 31 30 29 27 27 26 25 24 23 22 21 20 20 19 19 19
23 23 25 25 25 27 28 28 27 24 21 21 23 23 22 22 23 24 26 27 26 26 28 29 31 34 36 39 41 43 44 45 45 46 47 48 49 50 51 51 51 51 52 51 51 51 50 49 49 48 47 46 45 44 43 42 41 42 41 40 40 39 39 39 38 37 36 35 34 33 32 30 29 28 27 26 25 24 23 22 22 21 20 20 20 19
22 22 24 23 24 26 27 26 23 20 20 23 24 22 21 23 24 25 28 29 27 26 28 31 33 36 39 41 42 44 46 47 47 47 48 48 48 48 50 52 52 53 53 53 53 53 52 51 50 49 48 47 46 45 43 43 42 42 41 41 40 40 39 39 38 38 37 35 34 33 32 31 29 28 27 26 26 25 24 23 23 22 21 21 20 20
20 20 22 22 22 23 23 21 20 22 25 25 21 20 23 25 26 28 30 29 27 27 28 31 34 37 41 43 44 45 47 49 48 46 46 46 47 49 51 53 54 55 55 55 55 55 55 54 53 52 51 49 47 46 45 44 43 43 42 41 41 41 40 39 39 38 37 36 34 33 32 31 30 29 28 27 26 25 25 24 24 23 22 22 21 21
18 19 20 21 21 21 21 21 23 25 26 22 19 21 25 27 29 30 31 31 29 27 29 33 38 41 43 44 46 47 49 49 47 45 45 47 50 52 53 54 55 55 56 56 57 57 57 57 56 54 53 51 49 48 47 46 45 44 43 43 42 42 41 40 40 39 38 37 35 34 32 31 30 29 28 27 27 26 25 25 24 24 23 23 22 22
18 19 19 19 20 20 21 23 23 23 21 20 22 25 27 28 29 29 31 32 29 28 33 38 41 43 44 45 47 49 49 49 48 47 49 53 55 56 56 56 57 57 58 58 59 59 59 59 58 56 55 53 52 51 49 48 46 46 45 45 44 44 42 42 41 40 39 37 36 34 33 32 31 30 29 28 27 27 26 26 25 25 24 24 23 22
19 20 18 19 21 20 20 21 21 20 21 22 25 28 29 29 30 30 31 31 29 33 40 42 42 44 45 46 49 49 48 49 50 51 55 58 59 59 58 58 59 60 60 60 61 61 61 61 59 58 56 55 55 54 52 50 49 48 47 47 46 45 44 44 43 42 39 38 36 35 33 32 31 31 30 29 28 27 27 26 26 25 25 25 24 24
19 20 19 19 20 20 20 21 21 22 24 25 27 30 31 31 30 31 31 31 35 40 43 43 44 46 47 48 49 48 47 49 51 55 59 61 61 60 60 60 61 62 62 63 63 63 63 62 61 60 59 58 58 56 54 53 51 50 50 49 48 47 46 46 45 43 40 38 37 36 35 33 32 31 30 30 29 28 27 27 27 26 26 26 25 25
19 19 19 19 20 21 21 22 24 25 25 26 28 31 32 32 31 31 32 36 42 45 44 44 46 47 48 50 50 48 50 52 55 58 61 61 61 61 62 62 62 63 63 64 64 64 63 62 62 61 61 61 59 57 55 55 54 54 53 51 50 50 49 48 46 43 41 39 38 37 36 34 33 32 31 30 29 29 28 28 27 27 26 26 26 26
19 19 20 20 21 21 21 22 25 26 24 26 30 32 32 33 33 34 37 41 44 45 46 47 48 49 50 52 52 52 55 57 58 59 60 61 61 62 62 63 63 64 64 64 64 64 64 63 63 62 63 62 60 58 57 56 56 57 56 54 54 54 51 49 47 45 42 41 40 38 37 35 34 33 32 31 30 29 29 28 28 28 27 27 27 27
19 20 21 21 21 22 22 23 24 25 26 29 33 33 33 34 35 38 41 43 44 45 47 48 49 50 52 53 55 56 58 59 59 60 61 61 62 62 63 63 63 64 65 65 65 65 65 64 64 63 63 62 60 58 56 55 56 57 57 57 58 56 52 50 49 47 44 43 41 40 38 37 35 33 32 32 31 30 30 29 29 28 28 27 27 28
20 20 22 23 22 22 23 23 24 27 30 32 33 34 35 36 38 40 43 44 45 46 48 49 51 53 53 55 57 58 59 60 60 61 62 63 63 63 64 64 64 65 65 65 66 66 65 64 63 62 61 59 58 56 54 54 54 55 55 57 57 54 52 51 50 49 46 44 43 41 40 38 36 34 33 32 31 31 30 30 29 29 28 28 28 28
21 21 22 23 23 24 25 26 28 31 34 34 34 37 38 38 39 41 43 45 47 48 49 51 53 55 56 57 58 59 60 60 61 62 63 64 64 65 65 65 65 65 65 65 64 64 63 61 60 59 58 57 56 55 54 53 53 53 54 55 53 51 50 50 49 48 47 46 44 42 41 39 37 36 34 33 32 31 31 30 30 29 29 28 28 28
22 22 23 24 26 27 27 28 31 34 36 37 37 38 39 40 42 44 45 47 48 50 51 53 55 56 58 58 59 60 61 62 63 64 65 65 66 66 65 65 64 64 63 62 61 61 61 60 60 59 58 57 56 54 54 53 52 53 54 54 51 50 49 48 47 46 46 46 45 43 41 40 38 37 35 34 33 32 31 30 30 30 29 29 28 28
23 24 25 26 27 29 29 31 33 36 38 40 40 40 41 43 45 46 47 49 50 52 54 55 56 58 58 59 60 61 62 64 65 65 66 66 65 64 63 62 62 61 61 60 60 60 60 60 59 59 59 58 56 55 54 53 52 52 53 52 50 49 48 47 46 45 44 44 45 44 42 41 39 38 36 35 34 33 32 31 30 30 29 29 28 28
25 26 27 28 29 30 32 34 37 39 39 38 40 42 45 47 49 49 50 51 52 54 56 57 58 59 59 60 61 63 64 65 65 65 64 62 61 60 59 59 60 61 61 61 60 60 60 59 59 59 59 59 57 55 54 53 52 51 51 49 48 48 47 46 45 45 43 43 43 43 42 41 40 38 37 36 34 33 32 31 31 30 30 29 29 28
27 28 29 30 31 32 33 36 40 41 39 38 41 45 48 50 52 53 53 54 55 57 58 59 60 60 60 62 63 63 64 63 62 61 60 59 58 58 59 60 61 61 61 61 61 60 60 59 59 59 59 59 58 56 55 53 52 51 49 47 46 45 45 44 44 43 43 42 41 41 41 41 40 39 37 36 35 34 33 32 31 30 30 29 29 29
28 29 30 32 33 34 35 38 41 42 41 43 46 49 51 52 54 55 55 57 58 59 60 61 62 63 63 63 62 61 60 60 59 58 58 58 58 59 60 61 62 62 62 62 61 60 59 59 58 59 59 59 58 57 55 53 52 51 49 47 45 44 43 43 42 41 41 40 40 40 40 39 39 38 37 36 35 34 33 32 31 31 30 30 29 29
30 31 32 33 34 36 39 41 42 42 44 47 51 52 53 54 55 56 57 59 60 60 61 62 63 63 62 61 60 59 58 58 58 58 59 59 59 60 61 62 62 63 63 62 61 60 58 57 58 59 59 59 58 57 55 53 52 51 49 47 45 43 42 41 40 39 39 38 38 38 38 38 37 36 36 35 34 34 33 32 31 31 30 30 30 29
Wind_Direction
317 317 316 308 299 298 300 301 306 310 309 310 313 310 309 311 311 311 312 313 318 316 310 308 307 307 309 309 305 302 302 301 300 303 304 305 307 309 309 309 310 310 311 313 313 313 313 314 315 316 317 318 320 321 322 323 324 325 327 328 328 329 330 331 332 332 332 332 333 333 333 332 332 331 330 328 326 324 322 321 319 317 313 307 302 297
318 317 304 295 292 299 306 307 312 314 313 313 311 311 312 311 309 311 313 315 319 318 313 314 313 309 309 308 306 306 306 301 298 301 303 304 307 309 309 309 310 312 313 314 313 313 313 314 315 316 317 318 320 321 322 323 324 326 327 328 329 330 331 331 332 332 332 333 333 333 333 333 332 332 331 329 327 325 323 322 321 318 314 309 305 301
318 306 292 292 300 313 319 319 316 313 314 314 313 313 313 312 312 314 316 317 319 317 314 318 317 313 312 310 308 305 302 302 301 302 304 305 308 309 309 310 311 312 313 314 314 313 313 314 315 315 316 318 320 321 322 323 325 326 327 328 329 330 331 332 332 332 333 333 333 333 333 333 333 332 331 330 328 326 324 322 321 319 315 311 308 303
306 297 292 297 305 310 314 319 321 317 315 313 312 312 311 314 317 314 316 318 316 314 313 316 317 315 317 318 314 307 304 308 309 308 308 309 309 309 310 312 312 311 312 313 314 314 314 314 314 314 315 318 320 321 322 324 325 326 327 328 329 330 331 332 332 332 332 332 333 333 333 333 332 332 331 330 329 328 326 323 322 320 316 312 309 304
296 293 299 310 311 308 310 317 322 319 315 311 308 309 310 313 312 310 314 317 316 315 314 316 318 317 320 322 318 315 313 312 312 313 312 310 309 311 313 312 311 311 312 313 314 315 315 315 314 314 315 318 320 321 322 324 325 326 327 328 329 330 331 332 332 332 332 332 333 333 333 333 333 332 331 330 329 329 328 325 322 320 317 313 310 305
297 295 299 307 313 315 312 312 314 315 315 312 308 305 308 311 310 311 317 319 319 317 315 319 320 318 321 320 316 319 320 314 315 315 312 310 312 312 312 311 311 312 313 314 315 315 315 315 315 315 315 317 319 321 323 324 325 326 327 328 329 330 332 332 332 332 332 332 333 333 333 333 333 333 332 331 330 329 329 327 324 321 317 313 311 307
298 302 303 302 308 315 315 310 309 314 318 314 310 309 310 312 312 313 315 316 315 313 314 319 317 314 319 320 317 320 320 316 318 317 312 311 312 312 311 311 312 313 313 314 315 316 316 316 315 315 315 317 319 321 323 324 325 326 327 328 329 331 332 332 332 332 332 332 333 333 333 333 333 333 332 331 330 330 329 328 326 322 318 314 312 308
299 305 309 309 309 311 312 310 307 314 318 312 311 315 314 312 312 312 313 311 311 313 315 318 314 312 317 318 319 322 320 318 318 317 315 313 311 311 312 312 313 314 314 316 316 317 316 316 316 316 316 318 320 322 323 324 325 326 327 328 329 331 332 332 332 332 332 332 333 333 333 333 333 333 332 331 331 330 330 329 328 325 320 316 313 309
301 301 301 305 308 305 304 306 306 312 315 309 309 314 314 312 312 313 314 311 313 317 316 315 316 314 314 316 321 323 321 319 318 318 317 314 313 314 314 314 315 315 316 317 317 317 317 316 316 316 318 319 320 322 323 324 325 326 327 328 329 331 332 332 332 332 332 332 333 333 333 333 334 333 333 332 331 331 331 330 329 327 323 318 315 311
300 300 298 301 303 299 299 303 306 309 311 311 312 314 316 318 317 317 315 313 317 318 313 312 317 317 315 317 321 323 321 317 317 319 319 317 318 318 317 317 318 318 318 318 318 318 317 317 317 318 318 319 320 322 323 324 326 327 327 328 329 331 331 332 332 332 332 332 332 333 333 334 334 334 333 333 332 331 332 331 330 329 325 320 316 313
299 301 299 301 301 299 300 304 306 307 310 315 317 316 317 319 319 317 314 316 319 317 312 313 318 320 319 318 318 319 318 316 318 321 321 320 320 320 320 320 320 320 320 320 320 319 318 319 319 319 319 319 321 322 323 325 326 327 327 328 329 330 331 331 332 332 331 332 332 333 333 334 334 334 334 333 332 332 332 332 331 329 326 322 316 313
301 301 299 300 300 302 306 307 308 310 313 317 318 317 317 317 317 316 315 319 318 314 314 316 318 319 315 315 318 318 316 317 318 320 321 321 320 320 321 320 320 320 320 321 321 320 320 320 320 320 319 320 321 322 323 325 326 327 327 328 329 330 330 331 332 332 331 332 333 333 333 334 335 335 334 334 333 332 332 331 330 329 327 323 318 313
299 296 298 302 301 302 306 307 310 313 317 318 317 319 319 317 319 317 315 316 313 311 315 317 319 317 310 311 316 315 313 314 315 316 318 319 319 320 321 320 320 321 321 321 321 321 321 321 321 321 320 321 322 322 324 325 326 326 327 328 329 329 330 331 332 331 331 332 332 333 333 334 335 335 334 334 333 332 331 331 330 329 327 325 320 315
302 300 301 301 301 303 304 305 308 311 316 316 314 317 318 318 320 316 313 315 313 312 314 315 317 316 313 315 316 312 311 313 315 315 316 318 318 319 321 321 321 320 320 320 320 321 322 321 321 321 321 321 322 323 324 325 326 326 327 328 328 329 330 331 332 331 331 331 332 333 333 334 334 335 334 334 333 332 331 330 330 328 327 325 322 317
302 302 301 300 301 305 305 303 305 309 313 313 310 313 314 314 314 311 310 313 313 313 314 314 315 315 316 318 316 312 312 315 317 317 318 318 318 319 321 320 320 319 319 319 319 320 321 321 321 321 321 322 322 323 324 325 326 326 326 327 328 329 330 331 331 331 331 331 332 333 333 334 334 334 334 334 333 332 330 330 329 328 326 325 323 319
300 298 300 303 303 305 305 303 306 311 313 310 310 312 312 310 310 309 308 308 312 316 315 313 311 312 314 316 316 317 317 317 317 318 319 318 318 320 320 318 318 318 318 318 318 319 320 320 321 321 321 322 322 323 324 325 325 326 326 327 328 328 329 330 331 330 331 331 332 332 333 333 334 334 334 334 332 331 330 329 329 328 326 324 323 320
302 300 303 306 306 306 305 302 306 310 309 309 310 308 308 310 312 310 309 312 316 316 314 313 311 314 319 318 319 323 322 320 321 321 320 318 318 320 319 318 318 318 318 318 317 318 319 320 320 321 321 321 322 323 324 324 325 326 326 327 328 328 329 330 330 330 330 331 331 331 332 333 333 334 334 333 333 331 330 329 329 328 327 325 323 320
300 300 303 306 305 305 305 303 307 309 307 308 307 305 308 312 314 313 312 316 319 313 312 314 311 315 320 318 321 325 322 320 321 322 321 319 319 319 317 318 319 318 318 318 317 318 318 319 320 320 320 321 321 322 323 324 325 326 326 327 327 328 328 329 330 330 330 330 330 331 331 332 333 333 333 334 333 332 331 330 329 328 328 326 324 322
302 302 304 306 304 305 307 305 307 308 307 306 304 305 310 309 309 312 311 314 316 313 313 314 313 315 314 313 319 322 319 319 321 322 322 320 318 318 318 318 319 319 319 317 317 317 318 318 319 319 320 320 321 321 322 323 324 325 326 326 327 328 328 329 329 329 329 329 330 330 331 331 332 333 333 333 333 332 331 330 329 329 328 328 326 324
303 303 303 305 304 305 307 305 303 305 308 308 307 307 309 307 305 308 308 309 311 311 313 315 317 317 313 312 318 319 317 319 321 321 321 317 317 318 318 319 320 319 319 317 317 317 317 317 317 318 319 319 319 320 321 322 323 324 325 326 327 327 328 328 328 328 328 328 329 329 329 330 331 332 332 332 332 332 331 330 329 329 329 330 329 327
304 301 300 304 306 304 304 303 300 300 303 305 305 304 306 307 306 307 307 306 308 309 311 314 314 314 315 317 317 316 317 319 320 319 318 316 317 318 318 319 320 319 318 317 317 317 316 316 316 317 318 318 319 319 319 321 322 323 324 325 326 326 327 327 328 328 327 327 327 327 328 329 330 331 330 330 331 331 330 329 329 329 330 331 331 329
302 299 298 303 305 303 302 302 301 299 300 301 301 300 302 304 306 307 307 306 306 305 306 310 310 311 317 320 316 315 317 319 319 318 316 316 317 318 319 319 319 319 318 317 317 317 316 316 316 316 317 317 317 317 318 319 320 321 322 323 324 325 326 327 327 327 327 326 326 326 327 327 328 329 329 329 329 329 329 329 329 329 329 330 331 330
302 302 301 301 302 302 302 305 304 301 301 302 301 302 303 303 302 303 304 305 306 304 305 309 307 309 318 321 315 316 317 318 318 317 315 316 317 318 319 319 319 318 318 317 317 316 316 315 315 315 315 315 315 316 316 317 318 319 320 322 323 324 325 326 327 327 326 325 325 325 325 326 327 327 327 327 328 328 328 328 328 328 329 330 330 330
303 304 303 302 304 306 306 307 307 305 305 303 303 304 303 302 301 300 299 301 304 302 303 307 305 307 317 320 315 316 318 318 318 316 315 316 317 318 318 319 319 318 318 317 317 316 316 315 315 315 315 314 314 314 314 315 316 317 318 320 321 322 324 325 326 326 325 324 323 323 324 324 325 325 325 326 326 327 327 327 327 327 327 328 330 330
302 302 304 306 309 310 311 311 309 307 305 302 303 304 303 303 305 302 300 301 303 300 299 302 301 305 315 319 316 317 319 318 317 316 316 316 317 318 318 319 319 318 318 317 316 316 315 315 315 314 314 314 313 313 312 313 314 315 316 318 319 321 322 324 325 325 324 323 322 321 322 322 323 323 323 324 324 325 325 325 326 326 326 327 329 330
300 300 302 304 305 306 307 308 306 305 305 304 305 304 302 302 300 299 300 301 301 300 299 297 298 304 312 316 315 317 318 317 316 317 317 317 317 317 318 318 318 318 317 317 316 315 315 314 314 313 313 313 312 311 311 312 313 314 315 316 318 320 321 322 323 324 323 322 320 320 320 320 320 321 321 322 322 323 323 324 324 324 324 325 327 329
302 301 300 297 296 297 300 302 304 306 305 303 304 302 300 299 298 299 300 297 297 300 299 296 297 303 309 312 314 316 317 316 317 318 318 318 318 317 317 317 318 317 317 316 316 315 314 313 312 312 312 312 311 310 310 311 312 312 313 314 316 318 319 320 321 322 322 321 319 318 318 318 318 319 319 320 320 320 320 321 322 322 322 323 323 325
302 301 299 296 294 295 298 301 304 305 303 301 302 301 299 298 297 295 293 294 299 301 299 300 301 302 306 311 314 315 316 316 317 317 317 318 318 317 316 316 317 316 316 315 315 313 312 311 311 312 311 310 309 309 309 310 311 311 312 313 314 315 317 318 319 320 320 320 318 317 316 316 316 317 317 317 317 316 317 318 318 319 319 319 319 321
301 300 300 299 298 299 300 302 302 302 301 301 301 301 299 297 294 291 290 294 298 296 297 303 304 303 306 311 313 314 314 315 316 316 316 317 317 316 316 316 316 315 315 314 313 312 311 311 311 311 310 309 308 308 308 309 309 310 311 311 312 313 315 316 317 318 318 318 317 315 315 314 314 314 315 314 313 313 313 314 315 315 315 314 314 316
300 299 301 302 301 302 302 303 303 302 303 304 302 301 299 295 292 291 293 297 297 294 297 302 303 304 308 310 310 311 312 314 315 315 316 317 317 317 316 316 316 315 315 314 313 312 312 311 311 310 309 308 307 306 307 308 308 308 309 309 310 311 313 314 315 315 315 315 315 315 313 312 312 312 312 311 310 309 309 309 310 311 311 310 310 311
300 300 303 304 304 304 306 309 308 305 304 305 304 303 300 298 298 298 299 302 301 299 301 303 304 305 308 309 309 310 312 314 315 316 317 318 318 318 318 317 317 316 316 315 314 314 313 312 311 310 309 307 306 306 306 306 306 306 307 307 308 309 311 312 312 313 313 313 313 313 311 310 309 309 308 308 307 306 305 305 305 305 306 306 307 307
301 301 305 307 306 305 310 313 311 308 307 306 306 307 305 303 303 303 305 307 304 303 306 307 307 308 310 311 312 312 314 316 316 317 318 319 319 319 318 318 317 317 317 317 316 315 314 312 311 309 308 306 305 305 305 304 304 304 304 305 306 308 309 309 310 310 311 311 311 311 310 308 307 306 305 305 304 302 301 300 300 300 301 303 303 304
302 303 305 307 305 304 309 312 311 312 313 309 308 310 309 306 306 307 309 308 305 306 309 309 308 309 312 314 313 314 315 316 317 318 319 319 318 318 318 318 318 318 319 318 317 316 314 313 312 309 307 306 305 303 303 303 302 302 303 304 305 306 307 307 307 308 308 309 309 309 308 306 304 303 302 302 301 299 298 296 295 296 297 298 300 301
304 305 304 304 304 304 308 312 314 315 313 309 309 310 309 309 308 308 309 308 307 306 307 307 308 310 311 313 313 314 315 315 317 318 318 318 317 317 318 319 320 320 320 319 318 317 316 314 313 311 308 306 304 303 302 301 301 301 302 303 303 304 305 305 305 305 306 306 306 306 306 304 302 300 299 299 298 297 295 292 291 292 293 294 296 297
305 306 305 305 305 305 311 318 318 313 309 310 311 310 308 308 308 307 307 308 308 306 304 305 307 308 310 313 313 313 314 315 316 317 317 318 318 318 319 320 321 321 320 320 319 318 317 316 314 312 309 307 305 303 302 301 300 300 301 301 301 302 302 303 303 303 303 304 303 303 303 302 300 298 297 297 296 294 292 289 288 288 289 290 292 293
307 308 307 307 308 309 313 318 314 309 312 315 313 311 312 313 314 313 311 310 311 309 305 305 308 310 313 314 314 314 315 315 315 316 317 318 320 321 321 321 321 320 320 319 319 318 318 316 314 311 309 307 305 303 301 299 299 299 299 299 299 299 300 300 301 300 300 301 301 300 300 300 298 296 295 294 293 291 289 287 285 285 286 287 288 289
312 312 311 310 310 311 311 309 309 314 319 318 314 315 316 316 316 315 312 312 313 311 309 311 313 314 315 315 315 316 316 315 315 316 319 321 321 321 321 320 320 320 319 319 318 317 317 315 313 311 309 307 304 302 299 298 297 297 297 297 297 297 297 297 298 297 297 297 298 298 297 297 296 294 293 291 290 289 287 285 283 283 283 283 284 285
317 314 312 311 311 313 313 313 315 320 319 314 312 316 317 315 315 314 312 312 313 315 317 317 316 316 316 316 317 318 318 317 315 317 320 321 321 321 320 320 320 319 319 318 318 317 316 315 314 312 309 307 304 301 299 297 296 295 295 295 295 295 295 294 294 295 295 295 295 295 295 294 293 293 291 289 288 287 286 284 282 281 280 280 281 282
322 319 316 313 312 313 314 313 314 314 313 312 313 317 318 316 315 316 314 311 313 319 321 319 317 317 317 317 318 319 319 318 317 318 320 320 320 320 320 319 319 319 318 318 317 316 316 315 314 312 310 307 304 301 299 296 294 293 293 293 292 292 292 292 292 292 292 293 293 293 292 292 291 290 289 288 287 285 284 284 282 280 278 278 279 279
323 321 318 314 311 312 311 310 309 309 310 313 315 317 317 315 316 318 315 311 315 320 320 319 318 318 318 318 318 319 319 318 317 317 318 319 318 319 319 318 318 318 318 317 317 316 315 315 313 311 309 307 304 302 299 295 293 292 291 291 290 289 289 289 289 290 290 290 290 289 289 289 288 288 288 287 285 284 283 283 281 279 277 276 277 277
321 319 318 314 312 312 309 308 309 310 311 314 315 316 315 315 317 318 314 313 317 319 319 318 318 317 317 318 318 317 316 316 315 316 317 317 317 317 317 317 317 317 318 317 317 316 315 314 312 310 308 307 305 303 299 296 293 291 290 289 287 287 287 287 287 288 287 287 286 286 286 286 286 285 286 285 285 283 282 281 280 278 276 275 275 275
319 318 318 317 315 314 312 310 312 313 315 316 315 315 318 319 318 315 313 315 317 317 317 317 317 317 317 316 316 315 315 315 315 315 316 316 316 317 317 317 318 318 318 318 317 317 315 314 313 311 309 307 305 303 300 296 293 291 290 287 285 285 285 285 285 284 284 283 283 283 283 283 283 283 283 284 283 282 281 280 279 277 276 274 273 272
316 316 317 316 315 317 317 316 316 315 316 319 319 318 321 320 316 314 314 316 316 316 316 316 316 317 317 315 315 315 315 315 315 315 316 316 316 317 317 318 318 318 318 318 318 317 316 315 314 313 311 309 307 305 302 298 294 293 291 288 286 285 284 283 282 281 281 280 280 281 281 280 280 280 281 281 281 281 280 279 278 276 275 274 272 271
316 316 317 316 316 318 317 314 314 314 316 320 321 318 317 316 315 315 316 315 316 317 316 316 316 317 316 315 315 315 315 315 316 316 316 317 317 317 317 318 318 318 318 318 318 318 318 317 317 316 316 314 312 309 306 302 299 296 294 291 289 285 282 281 280 279 277 277 278 278 278 278 277 277 278 278 278 279 279 278 277 275 274 273 271 270
316 315 316 315 315 315 313 310 312 314 317 319 319 316 315 315 316 316 316 316 316 317 317 316 316 316 316 316 315 315 315 316 316 316 316 316 317 317 317 317 318 318 318 318 319 320 320 320 319 319 319 319 316 313 309 306 303 300 297 295 293 288 283 280 279 277 275 274 274 275 275 275 274 274 274 275 276 276 277 276 276 274 273 272 270 269
317 317 317 316 314 313 312 311 313 315 317 318 317 316 316 317 317 317 317 316 316 317 317 317 316 316 317 316 316 315 315 315 315 315 316 316 316 317 317 317 318 318 319 319 320 321 321 321 321 320 320 321 320 317 314 310 306 303 300 298 296 292 286 281 278 276 274 272 271 271 272 272 272 271 271 272 273 274 275 275 274 273 272 271 269 268
318 318 317 316 316 316 315 315 316 317 317 317 318 317 317 318 318 318 317 317 317 317 317 317 317 316 316 316 315 315 315 315 315 315 316 316 317 317 318 319 319 320 320 320 320 321 321 321 321 321 320 320 320 319 317 314 310 307 305 302 298 294 289 283 278 275 274 272 270 269 269 268 269 269 269 269 270 272 273 273 273 272 271 269 268 266
319 320 319 317 317 316 314 314 315 316 316 316 317 318 318 318 318 318 317 317 317 317 317 317 317 317 316 316 316 315 315 315 315 315 316 317 318 319 319 320 320 320 320 320 320 320 320 320 320 320 320 319 319 319 318 317 314 312 310 306 301 296 291 286 281 276 272 271 270 269 267 266 266 266 266 266 267 269 270 271 271 271 270 268 267 265
320 320 319 319 318 316 315 315 317 317 316 317 318 319 318 318 318 318 318 318 318 318 317 317 317 317 316 316 316 315 315 315 316 316 317 318 319 319 320 320 320 320 320 320 320 320 319 319 319 319 319 319 318 318 317 317 316 315 313 310 306 300 293 288 284 279 273 270 268 268 266 265 264 264 264 264 264 266 268 269 270 270 269 268 267 265
322 321 321 321 321 320 319 319 320 319 318 318 319 319 319 319 319 318 319 319 318 318 318 317 317 317 316 316 316 316 316 317 317 318 318 318 319 319 320 320 320 320 320 320 320 319 319 319 319 319 319 318 318 317 316 317 317 316 314 312 309 305 298 291 286 282 276 270 267 266 265 264 263 263 263 262 262 263 265 267 267 268 268 267 267 265
324 323 323 323 321 319 319 319 319 318 317 318 319 319 319 319 319 319 319 319 318 318 318 318 318 318 318 318 318 318 318 318 318 318 318 318 318 319 320 320 320 320 320 320 319 319 319 319 320 319 319 318 317 316 316 316 316 315 314 312 310 307 303 296 289 284 279 272 267 265 264 263 262 262 262 262 261 261 263 265 266 266 266 266 266 265